• In Deutschland
  • Länderverzeichnis
  • Für 7 Tage
  • Wassertemperatur
  • Satellitenkarten
  • Wetterkarte
  • Widgets
  • user-avatar
    Anmelden

    Stündliche Wetter Pedro Leopoldo

    Heute, 21 September, Freitag

    Zeit Temperatur Niederschläge Wind Luftdruck Luftfeuchtigkeit
    00:00 +22°C° 1.9 mm 1 m/S 695 mmHg 87%
    01:00 +22°C° 0.5 mm 1 m/S 695 mmHg 87%
    02:00 +21°C° 0.5 mm 2 m/S 694 mmHg 87%
    03:00 +21°C° 0.5 mm 2 m/S 694 mmHg 87%
    04:00 +21°C° 0.3 mm 2 m/S 694 mmHg 87%
    05:00 +21°C° 0.3 mm 2 m/S 694 mmHg 87%
    06:00 +21°C° 0.3 mm 2 m/S 694 mmHg 87%
    07:00 +23°C° 0.5 mm 2 m/S 695 mmHg 82%
    08:00 +24°C° 0.5 mm 3 m/S 695 mmHg 77%
    09:00 +25°C° 0.5 mm 3 m/S 696 mmHg 71%
    10:00 +27°C° 0.5 mm 3 m/S 695 mmHg 65%
    11:00 +28°C° 0.5 mm 3 m/S 695 mmHg 59%
    12:00 +29°C° 0.5 mm 2 m/S 695 mmHg 53%
    13:00 +30°C° 0.5 mm 2 m/S 694 mmHg 52%
    14:00 +30°C° 0.5 mm 2 m/S 694 mmHg 51%
    15:00 +30°C° 0.5 mm 2 m/S 693 mmHg 50%
    16:00 +29°C° 0.4 mm 2 m/S 693 mmHg 54%
    17:00 +28°C° 0.4 mm 1 m/S 693 mmHg 58%
    18:00 +27°C° 0.4 mm 1 m/S 693 mmHg 61%
    19:00 +26°C° 0.2 mm 1 m/S 693 mmHg 65%
    20:00 +25°C° 0.2 mm 1 m/S 694 mmHg 69%
    21:00 +24°C° 0.2 mm 1 m/S 694 mmHg 73%
    22:00 +24°C° 0.2 mm 2 m/S 694 mmHg 75%
    23:00 +23°C° 0.2 mm 2 m/S 694 mmHg 77%

    Morgen, 22 September, Samstag

    Zeit Temperatur Niederschläge Wind Luftdruck Luftfeuchtigkeit
    00:00 +23°C° 0.2 mm 2 m/S 694 mmHg 79%
    01:00 +21°C° 0 mm 2 m/S 694 mmHg 81%
    02:00 +21°C° 0 mm 2 m/S 693 mmHg 82%
    03:00 +21°C° 0 mm 1 m/S 693 mmHg 83%
    04:00 +21°C° 0 mm 1 m/S 693 mmHg 84%
    05:00 +21°C° 0 mm 1 m/S 693 mmHg 85%
    06:00 +21°C° 0 mm 1 m/S 693 mmHg 86%
    07:00 +23°C° 0 mm 1 m/S 694 mmHg 77%
    08:00 +25°C° 0 mm 1 m/S 694 mmHg 68%
    09:00 +27°C° 0 mm 1 m/S 695 mmHg 60%
    10:00 +29°C° 0 mm 1 m/S 695 mmHg 53%
    11:00 +31°C° 0 mm 1 m/S 695 mmHg 45%
    12:00 +32°C° 0 mm 1 m/S 695 mmHg 38%
    13:00 +32°C° 0 mm 1 m/S 694 mmHg 37%
    14:00 +32°C° 0 mm 1 m/S 693 mmHg 36%
    15:00 +32°C° 0 mm 1 m/S 693 mmHg 36%
    16:00 +31°C° 0.1 mm 1 m/S 693 mmHg 40%
    17:00 +29°C° 0.1 mm 2 m/S 692 mmHg 45%
    18:00 +28°C° 0.1 mm 2 m/S 692 mmHg 49%
    19:00 +27°C° 0.2 mm 2 m/S 693 mmHg 55%
    20:00 +26°C° 0.2 mm 3 m/S 693 mmHg 61%
    21:00 +25°C° 0.2 mm 3 m/S 694 mmHg 67%
    22:00 +24°C° 0 mm 3 m/S 694 mmHg 69%
    23:00 +24°C° 0 mm 3 m/S 694 mmHg 72%

    übermorgen, 23 September, Sonntag

    Zeit Temperatur Niederschläge Wind Luftdruck Luftfeuchtigkeit
    00:00 +22°C° 0 mm 3 m/S 694 mmHg 75%
    01:00 +22°C° 0 mm 3 m/S 694 mmHg 77%
    02:00 +21°C° 0 mm 3 m/S 693 mmHg 79%
    03:00 +21°C° 0 mm 3 m/S 693 mmHg 82%
    04:00 +21°C° 0 mm 3 m/S 693 mmHg 84%
    05:00 +20°C° 0 mm 3 m/S 693 mmHg 85%
    06:00 +20°C° 0 mm 2 m/S 694 mmHg 87%
    07:00 +22°C° 0 mm 3 m/S 694 mmHg 79%
    08:00 +25°C° 0 mm 3 m/S 695 mmHg 71%
    09:00 +27°C° 0 mm 3 m/S 696 mmHg 63%
    10:00 +28°C° 0 mm 3 m/S 696 mmHg 56%
    11:00 +30°C° 0 mm 3 m/S 696 mmHg 48%
    12:00 +31°C° 0 mm 2 m/S 696 mmHg 41%
    13:00 +31°C° 0 mm 2 m/S 695 mmHg 41%
    14:00 +32°C° 0 mm 2 m/S 694 mmHg 40%
    15:00 +32°C° 0 mm 2 m/S 693 mmHg 39%
    16:00 +30°C° 0 mm 2 m/S 693 mmHg 44%
    17:00 +29°C° 0 mm 2 m/S 693 mmHg 48%
    18:00 +28°C° 0 mm 2 m/S 693 mmHg 52%
    19:00 +27°C° 0 mm 2 m/S 694 mmHg 57%
    20:00 +26°C° 0 mm 3 m/S 694 mmHg 62%
    21:00 +25°C° 0 mm 3 m/S 695 mmHg 67%
    22:00 +24°C° 0 mm 3 m/S 695 mmHg 68%
    23:00 +24°C° 0 mm 3 m/S 695 mmHg 68%

    24 September, Montag

    Zeit Temperatur Niederschläge Wind Luftdruck Luftfeuchtigkeit
    00:00 +22°C° 0 mm 3 m/S 695 mmHg 69%
    01:00 +22°C° 0 mm 3 m/S 694 mmHg 72%
    02:00 +21°C° 0 mm 3 m/S 694 mmHg 75%
    03:00 +20°C° 0 mm 3 m/S 694 mmHg 78%
    04:00 +20°C° 0 mm 3 m/S 694 mmHg 81%
    05:00 +20°C° 0 mm 3 m/S 694 mmHg 84%
    06:00 +20°C° 0 mm 3 m/S 695 mmHg 86%
    07:00 +21°C° 0 mm 3 m/S 695 mmHg 77%
    08:00 +24°C° 0 mm 3 m/S 696 mmHg 68%
    09:00 +26°C° 0 mm 3 m/S 697 mmHg 58%
    10:00 +28°C° 0 mm 3 m/S 697 mmHg 51%
    11:00 +29°C° 0 mm 3 m/S 696 mmHg 44%
    12:00 +31°C° 0 mm 3 m/S 696 mmHg 37%
    13:00 +31°C° 0 mm 3 m/S 695 mmHg 35%
    14:00 +33°C° 0 mm 3 m/S 695 mmHg 34%
    15:00 +33°C° 0 mm 3 m/S 694 mmHg 32%
    16:00 +30°C° 0 mm 3 m/S 694 mmHg 37%
    17:00 +29°C° 0 mm 3 m/S 694 mmHg 42%
    18:00 +27°C° 0 mm 3 m/S 694 mmHg 48%
    19:00 +26°C° 0 mm 3 m/S 694 mmHg 54%
    20:00 +25°C° 0 mm 3 m/S 695 mmHg 60%
    21:00 +24°C° 0 mm 3 m/S 695 mmHg 66%
    22:00 +22°C° 0 mm 3 m/S 695 mmHg 68%
    23:00 +22°C° 0 mm 3 m/S 695 mmHg 71%

    25 September, Dienstag

    Zeit Temperatur Niederschläge Wind Luftdruck Luftfeuchtigkeit
    00:00 +21°C° 0 mm 3 m/S 695 mmHg 73%
    01:00 +21°C° 0 mm 3 m/S 694 mmHg 75%
    02:00 +20°C° 0 mm 3 m/S 694 mmHg 76%
    03:00 +20°C° 0 mm 3 m/S 693 mmHg 78%
    04:00 +20°C° 0 mm 3 m/S 694 mmHg 81%
    05:00 +19°C° 0 mm 3 m/S 694 mmHg 84%
    06:00 +19°C° 0 mm 2 m/S 694 mmHg 87%
    07:00 +21°C° 0 mm 3 m/S 695 mmHg 77%
    08:00 +24°C° 0 mm 3 m/S 695 mmHg 68%
    09:00 +26°C° 0 mm 3 m/S 696 mmHg 59%
    10:00 +28°C° 0 mm 3 m/S 696 mmHg 51%
    11:00 +29°C° 0 mm 3 m/S 696 mmHg 44%
    12:00 +31°C° 0 mm 3 m/S 695 mmHg 37%
    13:00 +31°C° 0 mm 3 m/S 695 mmHg 35%
    14:00 +32°C° 0 mm 2 m/S 694 mmHg 33%
    15:00 +32°C° 0 mm 2 m/S 693 mmHg 31%
    16:00 +30°C° 0 mm 2 m/S 693 mmHg 35%
    17:00 +29°C° 0 mm 2 m/S 693 mmHg 38%
    18:00 +27°C° 0 mm 2 m/S 693 mmHg 42%
    19:00 +26°C° 0 mm 2 m/S 693 mmHg 47%
    20:00 +25°C° 0 mm 3 m/S 694 mmHg 52%
    21:00 +24°C° 0 mm 3 m/S 694 mmHg 57%
    22:00 +22°C° 0 mm 3 m/S 694 mmHg 59%
    23:00 +21°C° 0 mm 3 m/S 694 mmHg 61%

    26 September, Mittwoch

    Zeit Temperatur Niederschläge Wind Luftdruck Luftfeuchtigkeit
    00:00 +21°C° 0 mm 3 m/S 694 mmHg 63%
    01:00 +20°C° 0 mm 3 m/S 693 mmHg 65%
    02:00 +20°C° 0 mm 3 m/S 693 mmHg 68%
    03:00 +19°C° 0 mm 3 m/S 693 mmHg 71%
    04:00 +19°C° 0 mm 3 m/S 693 mmHg 76%
    05:00 +19°C° 0 mm 3 m/S 693 mmHg 80%
    06:00 +18°C° 0 mm 3 m/S 693 mmHg 85%
    07:00 +21°C° 0 mm 3 m/S 694 mmHg 75%
    08:00 +24°C° 0 mm 3 m/S 695 mmHg 65%
    09:00 +26°C° 0 mm 3 m/S 695 mmHg 55%
    10:00 +28°C° 0 mm 3 m/S 695 mmHg 47%
    11:00 +29°C° 0 mm 3 m/S 694 mmHg 39%
    12:00 +31°C° 0 mm 3 m/S 694 mmHg 31%
    13:00 +33°C° 0 mm 3 m/S 694 mmHg 29%
    14:00 +33°C° 0 mm 3 m/S 693 mmHg 27%
    15:00 +32°C° 0 mm 2 m/S 692 mmHg 25%
    16:00 +31°C° 0 mm 3 m/S 692 mmHg 30%
    17:00 +29°C° 0 mm 3 m/S 692 mmHg 34%
    18:00 +27°C° 0 mm 3 m/S 692 mmHg 39%
    19:00 +26°C° 0 mm 3 m/S 692 mmHg 44%
    20:00 +25°C° 0 mm 3 m/S 693 mmHg 49%
    21:00 +24°C° 0 mm 3 m/S 693 mmHg 54%
    22:00 +22°C° 0 mm 3 m/S 693 mmHg 54%
    23:00 +22°C° 0 mm 3 m/S 693 mmHg 54%
    Mehr zeigen